Location: Arlington
(40.6323°N, 74.1651°W)
Time: 11:38:39
(UTC+00:00)

CZ-4 R/B - Pass Details

Date: 22 November 2019
Orbit: 530 x 601 km, 97.7° (Epoch: 11 December)

Event Time Altitude Azimuth Distance (km) Brightness Sun altitude
Rises 23:19:09 0° 168° (SSE) 2,799 4.9 -19.7°
Reaches altitude 10° 23:21:19 10° 170° (S) 1,894 4.0 -20.1°
Maximum altitude 23:25:25 81° 257° (WSW) 586 1.4 -20.9°
Drops below altitude 10° 23:29:29 10° 346° (NNW) 1,866 4.1 -21.7°
Sets 23:31:36 0° 347° (NNW) 2,755 5.0 -22.1°
